Content
SEND FEEDBACK

Daily
Averages
Monthly
Summary
Canada

STEVESTON, BRITISH COLUMBIA


Home > North America > Canada > British Columbia
Elevation: 7 feet     Latitude: 49 10N     Longitude: 123 10W

WEATHER
 
SELECT A DAY
Number of Records: 249,213;   Date Range: 5/15/97 - 4/23/14
 
SHARE

PRINT THIS DATA

[ ← Previous Day ]
WEATHER ALMANAC - AUGUST 14, 2013
[ Next Day → ]
[ °C ]   °F
Weather ElementAverageHighLow
Temperature61 °F69.8 °F (3:55 pm)55.4 °F (1:15 am)
Dewpoint57.3 °F62.6 °F (5:35 pm)53.6 °F (12:35 am)
Humidity88.4 %100 % (4:55 am)64 % (3:55 pm)
Barometer29.92 in29.93 in (12:35 am)29.90 in (12:55 pm)
Wind Speed0.5 mph5.8 mph (1:15 pm)
Weather ElementAverage
Visibility9.1 mi
Wind DirectionNNE (27.1 °)

Weather ElementTotal
Precipitation0.02 in
Heating Degree Days2.4 (Base 65)
Growing Degree Days12.6 (Base 50)
Averaged from 69 records on August 14, 2013
WEATHER CONDITIONS BREAKOUT
WIND DIRECTION BREAKOUT
WEATHER BY HOUR - AUGUST 14, 2013
[ °C ]   °F
Local TimeTemperatureDewpointHumidityBarometerVisibilityWind DirectionWind SpeedGust SpeedPrecipitationEventsConditions
12:35 AM57.2 °F53.6 °F88 %29.93 in10.0 miCalmClear
12:55 AM57.2 °F53.6 °F88 %29.93 in10.0 miCalmClear
1:15 AM55.4 °F53.6 °F94 %29.93 in10.0 miCalmClear
1:35 AM55.4 °F53.6 °F94 %29.92 in10.0 miCalmClear
1:55 AM55.4 °F53.6 °F94 %29.92 in10.0 miCalmClear
2:15 AM55.4 °F53.6 °F94 %29.92 in10.0 miCalmClear
2:35 AM55.4 °F53.6 °F94 %29.93 in10.0 miCalmClear
2:55 AM57.2 °F55.4 °F94 %29.93 in10.0 miNorthClear
3:15 AM57.2 °F55.4 °F94 %29.92 in10.0 miCalmClear
3:35 AM57.2 °F55.4 °F94 %29.92 in10.0 miSouth (170°)4.6 mphClear
3:55 AM57.2 °F55.4 °F94 %29.93 in10.0 miCalmClear
4:15 AM55.4 °F53.6 °F94 %29.92 in10.0 miCalmClear
4:35 AM55.4 °F53.6 °F94 %29.92 in10.0 miNorthClear
4:55 AM55.4 °F55.4 °F100 %29.91 in10.0 miCalmClear
5:15 AM55.4 °F53.6 °F94 %29.92 in10.0 miCalmClear
5:35 AM55.4 °F53.6 °F94 %29.92 in10.0 miCalmClear
5:55 AM55.4 °F53.6 °F94 %29.92 in10.0 miCalmClear
6:15 AM55.4 °F55.4 °F100 %29.93 in10.0 miCalmClear
6:35 AM57.2 °F55.4 °F94 %29.92 in10.0 miCalmClear
6:55 AM57.2 °F55.4 °F94 %29.93 in10.0 miCalmClear
7:15 AM57.2 °F53.6 °F88 %29.93 in10.0 miCalmClear
7:35 AM59.0 °F55.4 °F88 %29.93 in10.0 miCalmClear
7:55 AM59.0 °F55.4 °F88 %29.93 in10.0 miCalmClear
8:15 AM59.0 °F55.4 °F88 %29.93 in10.0 miCalmClear
8:35 AM59.0 °F55.4 °F88 %29.93 in10.0 miCalmClear
8:55 AM60.8 °F55.4 °F82 %29.93 in10.0 miCalmClear
9:15 AM59.0 °F55.4 °F88 %29.93 in10.0 miCalmClear
9:35 AM59.0 °F55.4 °F88 %29.93 in10.0 miCalmClear
9:55 AM60.8 °F55.4 °F82 %29.93 in10.0 miCalmClear
10:15 AM60.8 °F55.4 °F82 %29.92 in10.0 miCalmClear
10:35 AM59.0 °F55.4 °F88 %29.91 in10.0 miNorth (360°)4.6 mphClear
10:55 AM60.8 °F55.4 °F82 %29.92 in10.0 miCalmClear
11:15 AM62.6 °F57.2 °F82 %29.91 in10.0 miCalmClear
11:35 AM62.6 °F57.2 °F82 %29.92 in10.0 miCalmClear
11:55 AM66.2 °F57.2 °F73 %29.91 in10.0 miCalmPartly Cloudy
12:55 PM66.2 °F57.2 °F73 %29.90 in10.0 miNorth (360°)4.6 mphPartly Cloudy
1:15 PM66.2 °F57.2 °F73 %29.90 in10.0 miNorth (360°)5.8 mphClear
1:35 PM64.4 °F57.2 °F77 %29.91 in10.0 miCalmClear
1:55 PM66.2 °F57.2 °F73 %29.90 in10.0 miCalmRainLight Rain
2:15 PM66.2 °F57.2 °F73 %29.90 in10.0 miCalmRainLight Rain
2:35 PM66.2 °F57.2 °F73 %29.90 in10.0 miNorth (350°)4.6 mphClear
2:55 PM64.4 °F57.2 °F77 %29.90 in10.0 miCalmPartly Cloudy
3:15 PM68.0 °F57.2 °F68 %29.90 in10.0 miCalmPartly Cloudy
3:35 PM68.0 °F57.2 °F68 %29.90 in10.0 miCalmPartly Cloudy
3:55 PM69.8 °F57.2 °F64 %29.90 in10.0 miCalmClear
4:15 PM68.0 °F57.2 °F68 %29.90 in10.0 miCalmClear
4:35 PM69.8 °F57.2 °F64 %29.91 in10.0 miCalmPartly Cloudy
4:55 PM68.0 °F57.2 °F68 %29.90 in10.0 miCalmClear
5:15 PM68.0 °F59.0 °F73 %29.90 in7.0 miCalmRainLight Rain
5:35 PM64.4 °F62.6 °F94 %29.91 in6.0 miCalmRainLight Rain
5:55 PM64.4 °F60.8 °F88 %29.91 in5.0 miNorthRainLight Rain
6:15 PM62.6 °F62.6 °F100 %29.92 in5.0 miCalmRainLight Rain
6:35 PM62.6 °F62.6 °F100 %29.92 in3.0 miCalmRainLight Rain
6:55 PM62.6 °F62.6 °F100 %29.92 in5.0 miESE (120°)3.5 mphRainLight Rain
7:15 PM62.6 °F62.6 °F100 %29.91 in3.0 miCalmRainRain
7:35 PM62.6 °F62.6 °F100 %29.91 in3.0 miCalm0.01 inRainLight Rain
7:55 PM62.6 °F62.6 °F100 %29.92 in5.0 miCalm0.01 inRainLight Rain
8:15 PM62.6 °F62.6 °F100 %29.92 in8.0 miNorthPartly Cloudy
8:35 PM62.6 °F62.6 °F100 %29.92 in7.0 miCalmClear
8:55 PM62.6 °F62.6 °F100 %29.92 in9.0 miCalmClear
9:15 PM60.8 °F60.8 °F100 %29.92 in9.0 miCalmPartly Cloudy
9:35 PM60.8 °F60.8 °F100 %29.92 in10.0 miCalmClear
9:55 PM62.6 °F60.8 °F94 %29.92 in7.0 miSSE (150°)3.5 mphRainLight Rain
10:15 PM62.6 °F60.8 °F94 %29.92 in9.0 miCalmRainLight Rain
10:35 PM62.6 °F60.8 °F94 %29.92 in10.0 miCalmPartly Cloudy
10:55 PM60.8 °F60.8 °F100 %29.92 in10.0 miCalmMostly Cloudy
11:15 PM60.8 °F59.0 °F94 %29.92 in10.0 miCalmPartly Cloudy
11:35 PM60.8 °F60.8 °F100 %29.92 in9.0 miCalmPartly Cloudy
11:55 PM60.8 °F60.8 °F100 %29.92 in10.0 miCalmMostly Cloudy
Hourly data recorded from CZBB, located miles away from Steveston, British Columbia







STORIES FROM OUR PARTNERS